| time (UTC) | temp F | wind direction | speed knots | gust knots | rain 1hr in | rain 24hr in | rain mn in | humidity % | barometer mb |
| 20260503223339 | 84 | 343 | 5.2 | 12.2 | 0.00 | 0.00 | 0.00 | 40 | 1009.6 |
| 20260503221826 | 83 | 29 | 4.3 | 11.3 | 0.00 | 0.00 | 0.00 | 41 | 1009.9 |
| 20260503220353 | 82 | 36 | 4.3 | 10.4 | 0.00 | 0.00 | 0.00 | 39 | 1010.0 |
| 20260503214849 | 82 | 339 | 4.3 | 8.7 | 0.00 | 0.00 | 0.00 | 41 | 1010.2 |
| 20260503213330 | 81 | 1 | 4.3 | 8.7 | 0.00 | 0.00 | 0.00 | 43 | 1010.2 |
| 20260503211831 | 80 | 2 | 2.6 | 9.6 | 0.00 | 0.00 | 0.00 | 41 | 1010.5 |
| 20260503210338 | 80 | 331 | 4.3 | 9.6 | 0.00 | 0.00 | 0.00 | 41 | 1010.7 |
| 20260503204839 | 79 | 356 | 6.1 | 11.3 | 0.00 | 0.00 | 0.00 | 43 | 1010.8 |
| 20260503203345 | 78 | 304 | 4.3 | 10.4 | 0.00 | 0.00 | 0.00 | 43 | 1011.0 |
| 20260503201822 | 78 | 308 | 2.6 | 9.6 | 0.00 | 0.00 | 0.00 | 44 | 1011.2 |
| 20260503200327 | 78 | 325 | 3.5 | 10.4 | 0.00 | 0.00 | 0.00 | 45 | 1011.2 |
| 20260503194829 | 77 | 30 | 6.1 | 10.4 | 0.00 | 0.00 | 0.00 | 47 | 1011.5 |
| 20260503193349 | 76 | 356 | 6.1 | 10.4 | 0.00 | 0.00 | 0.00 | 49 | 1011.6 |
| 20260503191829 | 75 | 358 | 4.3 | 9.6 | 0.00 | 0.00 | 0.00 | 50 | 1011.8 |
| 20260503190327 | 75 | 357 | 3.5 | 8.7 | 0.00 | 0.00 | 0.00 | 51 | 1012.0 |
| 20260503184904 | 73 | 324 | 5.2 | 8.7 | 0.00 | 0.00 | 0.00 | 56 | 1011.9 |
| 20260503183339 | 73 | 352 | 4.3 | 9.6 | 0.00 | 0.00 | 0.00 | 57 | 1012.3 |
| 20260503181823 | 71 | 4 | 3.5 | 7.8 | 0.00 | 0.00 | 0.00 | 59 | 1012.3 |
| 20260503180325 | 70 | 338 | 3.5 | 8.7 | 0.00 | 0.00 | 0.00 | 61 | 1012.5 |
| 20260503174852 | 68 | 334 | 3.5 | 7.8 | 0.00 | 0.00 | 0.00 | 64 | 1012.7 |
| 20260503173331 | 67 | 3 | 3.5 | 7.0 | 0.00 | 0.00 | 0.00 | 64 | 1012.7 |
| 20260503171832 | 66 | 1 | 3.5 | 7.0 | 0.00 | 0.00 | 0.00 | 66 | 1012.9 |
| 20260503170343 | 64 | 358 | 2.6 | 5.2 | 0.00 | 0.00 | 0.00 | 69 | 1012.9 |
| 20260503150322 | 55 | 117 | 0.9 | 3.5 | 0.00 | 0.00 | 0.00 | 88 | 1013.2 |
| 20260503130326 | 54 | 88 | 0.0 | 0.0 | 0.00 | 0.00 | 0.00 | 84 | 1013.0 |
| 20260503110322 | 56 | 113 | 0.0 | 0.0 | 0.00 | 0.00 | 0.00 | 80 | 1013.0 |
| 20260503090354 | 59 | 98 | 0.0 | 1.7 | 0.00 | 0.00 | 0.00 | 70 | 1013.3 |
| 20260503080325 | 60 | 98 | 0.0 | 0.0 | 0.00 | 0.00 | 0.00 | 66 | 1013.4 |
| 20260503071830 | 61 | 100 | 1.7 | 2.6 | 0.00 | 0.00 | 0.00 | 65 | 1013.4 |
| 20260503070337 | 62 | 84 | 1.7 | 4.3 | 0.00 | 0.00 | 0.00 | 64 | 1013.3 |
| 20260503054829 | 64 | 54 | 1.7 | 4.3 | 0.00 | 0.00 | 0.00 | 59 | 1013.1 |
| 20260503053331 | 65 | 50 | 2.6 | 4.3 | 0.00 | 0.00 | 0.00 | 59 | 1013.0 |
| 20260503051854 | 66 | 63 | 1.7 | 4.3 | 0.00 | 0.00 | 0.00 | 57 | 1013.1 |
| 20260503050339 | 66 | 56 | 0.9 | 4.3 | 0.00 | 0.00 | 0.00 | 54 | 1013.1 |
| 20260503044845 | 67 | 51 | 3.5 | 7.8 | 0.00 | 0.00 | 0.00 | 53 | 1013.1 |
| 20260503043322 | 67 | 36 | 1.7 | 5.2 | 0.00 | 0.00 | 0.00 | 53 | 1012.8 |
| 20260503041852 | 68 | 36 | 2.6 | 4.3 | 0.00 | 0.00 | 0.00 | 52 | 1012.6 |
| 20260503040331 | 68 | 55 | 2.6 | 5.2 | 0.00 | 0.00 | 0.00 | 54 | 1012.4 |
| 20260503034829 | 68 | 36 | 2.6 | 5.2 | 0.00 | 0.00 | 0.00 | 57 | 1012.1 |
| 20260503033336 | 70 | 56 | 1.7 | 5.2 | 0.00 | 0.00 | 0.00 | 56 | 1011.9 |
| 20260503031823 | 71 | 41 | 2.6 | 5.2 | 0.00 | 0.00 | 0.00 | 55 | 1011.9 |
| 20260503030328 | 72 | 5 | 3.5 | 7.8 | 0.00 | 0.00 | 0.00 | 54 | 1011.6 |
| 20260503024834 | 74 | 12 | 3.5 | 8.7 | 0.00 | 0.00 | 0.00 | 53 | 1011.5 |
| 20260503023331 | 75 | 36 | 4.3 | 9.6 | 0.00 | 0.00 | 0.00 | 53 | 1011.2 |
| 20260503021903 | 76 | 27 | 3.5 | 9.6 | 0.00 | 0.00 | 0.00 | 52 | 1011.3 |
| 20260503020337 | 76 | 343 | 4.3 | 10.4 | 0.00 | 0.00 | 0.00 | 51 | 1011.3 |
| 20260503014824 | 76 | 10 | 5.2 | 10.4 | 0.00 | 0.00 | 0.00 | 49 | 1011.4 |
| 20260503013326 | 77 | 337 | 3.5 | 11.3 | 0.00 | 0.00 | 0.00 | 48 | 1011.6 |
| 20260503011827 | 78 | 14 | 4.3 | 11.3 | 0.00 | 0.00 | 0.00 | 47 | 1011.7 |
| 20260503010353 | 77 | 347 | 7.0 | 9.6 | 0.00 | 0.00 | 0.00 | 47 | 1011.7 |
| 20260503004833 | 77 | 36 | 4.3 | 9.6 | 0.00 | 0.00 | 0.00 | 48 | 1011.6 |
| 20260503003334 | 77 | 31 | 5.2 | 11.3 | 0.00 | 0.00 | 0.00 | 47 | 1011.7 |
| 20260503001836 | 78 | 326 | 6.1 | 12.2 | 0.00 | 0.00 | 0.00 | 47 | 1011.7 |
| 20260503000328 | 78 | 343 | 5.2 | 10.4 | 0.00 | 0.00 | 0.00 | 48 | 1011.9 |
| 20260502234830 | 78 | 36 | 5.2 | 12.2 | 0.00 | 0.00 | 0.00 | 47 | 1012.3 |
| 20260502233330 | 77 | 327 | 7.0 | 11.3 | 0.00 | 0.00 | 0.00 | 48 | 1012.3 |
| 20260502231848 | 76 | 8 | 7.0 | 11.3 | 0.00 | 0.00 | 0.00 | 49 | 1012.6 |
| 20260502230327 | 76 | 330 | 7.0 | 13.9 | 0.00 | 0.00 | 0.00 | 48 | 1012.8 |
| 20260502224829 | 76 | 27 | 4.3 | 12.2 | 0.00 | 0.00 | 0.00 | 49 | 1012.9 |